GW3348 Weather Reports


time (UTC)temp
F
wind
direction
speed
knots
gust
knots
rain 1hr
in
rain 24hr
in
rain mn
in
humidity
%
barometer
mb
20260505053801 59 150 0.0 1.7 0.00 0.00 0.00 71 1008.7
20260505053258 59 336 0.0 1.7 0.00 0.00 0.00 71 1008.8
20260505052755 59 354 0.9 2.6 0.00 0.00 0.00 70 1008.7
20260505052252 60 50 0.0 1.7 0.00 0.00 0.00 71 1008.5
20260505051749 60 34 1.7 2.6 0.00 0.00 0.00 69 1008.4
20260505051247 60 20 0.0 1.7 0.00 0.00 0.00 68 1008.5
20260505050744 60 83 1.7 1.7 0.00 0.00 0.00 68 1008.4
20260505050243 61 30 1.7 2.6 0.00 0.00 0.00 69 1008.3
20260505041712 62 65 0.9 1.7 0.00 0.00 0.00 68 1008.2
20260505041209 62 331 0.0 1.7 0.00 0.00 0.00 69 1007.9
20260505040707 63 33 0.9 1.7 0.00 0.00 0.00 69 1008.0
20260505040204 63 89 0.0 1.7 0.00 0.00 0.00 68 1008.1
20260505035701 64 35 0.0 2.6 0.00 0.00 0.00 66 1007.9
20260505035156 64 12 0.0 3.5 0.00 0.00 0.00 65 1007.9
20260505034653 65 356 0.9 2.6 0.00 0.00 0.00 64 1007.7
20260505034150 65 32 0.9 2.6 0.00 0.00 0.00 63 1007.8
20260505033646 66 314 0.0 1.7 0.00 0.00 0.00 62 1007.7
20260505033145 66 328 1.7 2.6 0.00 0.00 0.00 62 1007.7
20260505032643 66 299 0.0 1.7 0.00 0.00 0.00 62 1007.6
20260505032138 67 54 0.0 1.7 0.00 0.00 0.00 60 1007.7
20260505031636 68 358 1.7 3.5 0.00 0.00 0.00 58 1007.5
20260505031132 68 41 1.7 3.5 0.00 0.00 0.00 58 1007.5
20260505030629 68 312 1.7 3.5 0.00 0.00 0.00 58 1007.5
20260505030125 69 350 0.9 2.6 0.00 0.00 0.00 57 1007.3
20260505025621 69 297 0.0 2.6 0.00 0.00 0.00 56 1007.5
20260505025120 70 359 2.6 4.3 0.00 0.00 0.00 55 1007.4
20260505024617 70 298 2.6 4.3 0.00 0.00 0.00 54 1007.4
20260505024114 69 328 2.6 5.2 0.00 0.00 0.00 55 1007.3
20260505023611 70 299 2.6 5.2 0.00 0.00 0.00 54 1007.2
20260505023109 70 0 1.7 5.2 0.00 0.00 0.00 52 1007.1
20260505022606 71 1 1.7 3.5 0.00 0.00 0.00 51 1007.2
20260505022103 72 337 1.7 8.7 0.00 0.00 0.00 49 1006.9
20260505021600 73 288 2.6 7.0 0.00 0.00 0.00 49 1006.9
20260505021056 74 316 3.5 5.2 0.00 0.00 0.00 48 1007.0
20260505020556 75 304 2.6 4.3 0.00 0.00 0.00 46 1007.2
20260505020053 75 243 0.0 3.5 0.00 0.00 0.00 49 1007.0
20260505015550 75 315 0.0 1.7 0.00 0.00 0.00 47 1006.9
20260505015047 75 273 0.0 2.6 0.00 0.00 0.00 48 1006.9
20260505014544 76 161 0.0 5.2 0.00 0.00 0.00 47 1006.9
20260505014041 77 220 1.7 3.5 0.00 0.00 0.00 44 1006.9
20260505013538 77 223 1.7 2.6 0.00 0.00 0.00 38 1006.7
20260505013036 77 291 0.0 2.6 0.00 0.00 0.00 39 1007.0
20260505012534 78 299 1.7 2.6 0.00 0.00 0.00 37 1006.9
20260505012031 78 315 1.7 4.3 0.00 0.00 0.00 38 1006.8
20260505011526 79 266 0.0 1.7 0.00 0.00 0.00 38 1006.6
20260505011023 78 154 1.7 1.7 0.00 0.00 0.00 36 1006.9
20260505010518 78 172 1.7 3.5 0.00 0.00 0.00 37 1007.1
20260505010015 79 203 1.7 5.2 0.00 0.00 0.00 38 1006.9
20260505005512 79 222 0.9 5.2 0.00 0.00 0.00 39 1007.1
20260505005010 79 272 0.0 2.6 0.00 0.00 0.00 40 1006.8
20260505004506 79 290 0.0 1.7 0.00 0.00 0.00 42 1007.0
20260505004003 78 265 0.0 4.3 0.00 0.00 0.00 43 1007.0
20260505003500 79 258 0.9 5.2 0.00 0.00 0.00 41 1007.2
20260505002956 79 197 1.7 4.3 0.00 0.00 0.00 40 1007.0
20260505002452 79 216 0.9 4.3 0.00 0.00 0.00 42 1007.1
20260505001951 80 274 0.0 4.3 0.00 0.00 0.00 40 1007.1
20260505001448 81 274 1.7 2.6 0.00 0.00 0.00 40 1007.1
20260505000945 80 322 1.7 5.2 0.00 0.00 0.00 41 1007.1
20260505000443 80 182 1.7 3.5 0.00 0.00 0.00 40 1007.1
20260504235940 80 181 1.7 6.1 0.00 0.00 0.00 39 1006.9
20260504235437 80 268 0.0 3.5 0.00 0.00 0.00 40 1007.1
20260504234933 80 206 0.0 5.2 0.00 0.00 0.00 41 1007.0
20260504234431 81 185 1.7 5.2 0.00 0.00 0.00 39 1007.2
20260504233927 82 31 0.0 2.6 0.00 0.00 0.00 38 1007.2
20260504233423 81 215 0.0 5.2 0.00 0.00 0.00 39 1007.2
20260504232920 80 202 0.9 3.5 0.00 0.00 0.00 39 1007.3
20260504232417 80 261 1.7 5.2 0.00 0.00 0.00 38 1007.2
20260504231914 81 281 0.0 1.7 0.00 0.00 0.00 39 1007.3
20260504231410 81 195 1.7 4.3 0.00 0.00 0.00 37 1007.2
20260504230907 82 203 0.9 5.2 0.00 0.00 0.00 36 1007.5
20260504230404 81 272 0.9 2.6 0.00 0.00 0.00 37 1007.6
20260504225903 81 296 1.7 3.5 0.00 0.00 0.00 38 1007.6
20260504225359 81 297 2.6 4.3 0.00 0.00 0.00 38 1007.4
20260504224857 79 268 2.6 6.1 0.00 0.00 0.00 38 1007.5
20260504224353 80 288 2.6 5.2 0.00 0.00 0.00 40 1007.5
20260504223850 81 221 0.9 3.5 0.00 0.00 0.00 38 1007.5
20260504223345 79 275 2.6 7.8 0.00 0.00 0.00 39 1007.6
20260504222842 81 237 0.0 6.1 0.00 0.00 0.00 39 1007.7
20260504222339 80 317 0.9 3.5 0.00 0.00 0.00 40 1007.5
20260504221837 81 288 2.6 6.1 0.00 0.00 0.00 39 1007.7
20260504221333 80 205 0.9 4.3 0.00 0.00 0.00 38 1007.6
20260504220831 81 147 2.6 4.3 0.00 0.00 0.00 38 1007.6
20260504220327 81 198 2.6 3.5 0.00 0.00 0.00 37 1007.9
20260504215825 80 214 0.9 6.1 0.00 0.00 0.00 38 1007.9
20260504215321 80 217 2.6 5.2 0.00 0.00 0.00 38 1007.8
20260504214817 80 202 0.9 2.6 0.00 0.00 0.00 38 1008.0
20260504214314 79 162 2.6 6.1 0.00 0.00 0.00 40 1008.1
20260504213811 79 288 0.0 5.2 0.00 0.00 0.00 42 1007.9
20260504213307 79 238 2.6 4.3 0.00 0.00 0.00 39 1008.2
20260504212804 79 179 2.6 7.0 0.00 0.00 0.00 41 1008.2
20260504212300 79 160 1.7 6.1 0.00 0.00 0.00 41 1008.0
20260504211758 79 232 0.0 6.1 0.00 0.00 0.00 41 1008.1
20260504211254 80 273 0.9 5.2 0.00 0.00 0.00 43 1008.2
20260504210751 79 281 3.5 6.1 0.00 0.00 0.00 41 1008.3
20260504210248 78 277 0.0 3.5 0.00 0.00 0.00 43 1008.4
20260504205745 78 244 0.9 3.5 0.00 0.00 0.00 44 1008.1
20260504205243 78 334 0.0 4.3 0.00 0.00 0.00 41 1008.3
20260504204741 79 275 0.9 4.3 0.00 0.00 0.00 43 1008.2
20260504204239 77 323 1.7 4.3 0.00 0.00 0.00 44 1008.3
20260504203738 77 226 0.9 10.4 0.00 0.00 0.00 45 1008.4
20260504203235 77 251 0.9 3.5 0.00 0.00 0.00 45 1008.3
20260504202735 77 210 0.9 4.3 0.00 0.00 0.00 45 1008.4
20260504202233 76 100 1.7 2.6 0.00 0.00 0.00 46 1008.5
20260504201730 75 298 0.9 2.6 0.00 0.00 0.00 46 1008.4
20260504201227 76 289 1.7 3.5 0.00 0.00 0.00 46 1008.4
20260504200725 75 305 3.5 6.1 0.00 0.00 0.00 45 1008.4
20260504200220 75 287 0.9 3.5 0.00 0.00 0.00 45 1008.6
20260504195717 76 159 0.0 2.6 0.00 0.00 0.00 47 1008.6
20260504195213 75 264 0.9 2.6 0.00 0.00 0.00 46 1008.5
20260504194710 75 207 1.7 4.3 0.00 0.00 0.00 45 1008.5
20260504194206 75 221 0.0 3.5 0.00 0.00 0.00 49 1008.6
20260504193703 73 181 2.6 5.2 0.00 0.00 0.00 47 1008.8
20260504193200 74 241 1.7 4.3 0.00 0.00 0.00 47 1008.5
20260504192659 74 157 3.5 5.2 0.00 0.00 0.00 47 1008.5
20260504192156 74 124 0.0 3.5 0.00 0.00 0.00 46 1008.6
20260504191655 74 243 0.0 3.5 0.00 0.00 0.00 47 1008.5
20260504191150 74 7 1.7 2.6 0.00 0.00 0.00 47 1008.5
20260504190646 74 138 1.7 3.5 0.00 0.00 0.00 48 1008.9
20260504190138 73 264 1.7 4.3 0.00 0.00 0.00 48 1008.7
20260504185634 74 259 1.7 3.5 0.00 0.00 0.00 46 1008.8
20260504185131 73 247 0.0 2.6 0.00 0.00 0.00 44 1008.9
20260504184626 73 175 0.0 4.3 0.00 0.00 0.00 44 1008.8
20260504184121 74 249 1.7 6.1 0.00 0.00 0.00 45 1008.7
20260504183619 73 321 1.7 2.6 0.00 0.00 0.00 47 1008.7
20260504183117 74 269 0.0 1.7 0.00 0.00 0.00 49 1008.8
20260504182614 73 306 0.9 2.6 0.00 0.00 0.00 44 1008.8
20260504182111 73 158 0.9 4.3 0.00 0.00 0.00 45 1008.9
20260504181609 72 188 0.9 3.5 0.00 0.00 0.00 47 1008.9
20260504181106 73 176 1.7 3.5 0.00 0.00 0.00 45 1008.7
20260504180605 73 268 0.9 1.7 0.00 0.00 0.00 46 1008.8
20260504180104 72 186 1.7 5.2 0.00 0.00 0.00 47 1008.8
20260504175600 71 293 0.0 1.7 0.00 0.00 0.00 49 1008.6
20260504175057 71 156 1.7 5.2 0.00 0.00 0.00 48 1008.5
20260504174555 71 159 1.7 5.2 0.00 0.00 0.00 49 1008.7
20260504174051 70 220 0.0 6.1 0.00 0.00 0.00 53 1008.5
20260504173548 70 86 0.9 3.5 0.00 0.00 0.00 54 1008.7
20260504173046 70 218 2.6 4.3 0.00 0.00 0.00 53 1008.6
20260504172542 69 237 0.0 3.5 0.00 0.00 0.00 59 1008.7
20260504172038 68 274 1.7 2.6 0.00 0.00 0.00 61 1008.6
20260504171535 68 232 0.0 3.5 0.00 0.00 0.00 61 1008.7
20260504171032 68 220 1.7 3.5 0.00 0.00 0.00 62 1008.5
20260504170528 68 256 0.0 4.3 0.00 0.00 0.00 63 1008.7
20260504150912 56 47 0.9 2.6 0.00 0.00 0.00 83 1008.7
20260504150409 55 39 1.7 1.7 0.00 0.00 0.00 85 1008.5
20260504140835 52 85 0.9 2.6 0.00 0.00 0.00 90 1007.9
20260504140331 51 74 1.7 1.7 0.00 0.00 0.00 90 1007.8
20260504130800 51 70 2.6 2.6 0.00 0.00 0.00 90 1007.6
20260504130256 51 80 1.7 2.6 0.00 0.00 0.00 90 1007.7
20260504120220 51 96 1.7 2.6 0.00 0.00 0.00 88 1007.7
20260504110647 52 93 0.9 1.7 0.00 0.00 0.00 86 1007.6
20260504110143 52 95 1.7 2.6 0.00 0.00 0.00 86 1007.4
20260504100609 52 76 0.9 1.7 0.00 0.00 0.00 85 1007.9
20260504100108 52 91 0.9 2.6 0.00 0.00 0.00 85 1007.7
20260504082003 54 51 1.7 2.6 0.00 0.00 0.00 80 1007.3
20260504081500 55 64 1.7 3.5 0.00 0.00 0.00 79 1007.5
20260504080955 55 72 0.9 3.5 0.00 0.00 0.00 79 1007.4
20260504080452 55 62 1.7 3.5 0.00 0.00 0.00 79 1007.5